TimeCST,TemperatureF,Dew PointF,Humidity,Sea Level PressureIn,VisibilityMPH,Wind Direction,Wind SpeedMPH,Gust SpeedMPH,PrecipitationIn,Events,Conditions,WindDirDegrees,DateUTC
12:15 AM,26.6,19.0,73,30.07,10.0,Calm,Calm,-,N/A,,Clear,0,2013-02-02 06:15:00
12:35 AM,26.8,19.6,74,30.07,10.0,West,3.5,-,N/A,,Scattered Clouds,270,2013-02-02 06:35:00
12:55 AM,25.9,19.9,78,30.07,10.0,Calm,Calm,-,N/A,,Overcast,0,2013-02-02 06:55:00
1:15 AM,26.6,21.2,80,30.07,10.0,Calm,Calm,-,N/A,,Mostly Cloudy,0,2013-02-02 07:15:00
1:35 AM,26.2,21.0,81,30.07,10.0,NW,4.6,-,N/A,,Scattered Clouds,310,2013-02-02 07:35:00
1:55 AM,26.6,22.1,83,30.07,10.0,NW,3.5,-,N/A,,Clear,320,2013-02-02 07:55:00
2:15 AM,26.1,21.7,84,30.08,10.0,Calm,Calm,-,N/A,,Scattered Clouds,0,2013-02-02 08:15:00
2:35 AM,26.4,22.6,86,30.09,10.0,Calm,Calm,-,N/A,,Mostly Cloudy,0,2013-02-02 08:35:00
2:55 AM,28.0,23.2,82,30.11,10.0,NW,3.5,-,N/A,,Overcast,320,2013-02-02 08:55:00
3:15 AM,28.6,23.4,81,30.11,10.0,NW,6.9,-,N/A,,Overcast,320,2013-02-02 09:15:00
3:35 AM,28.2,22.6,80,30.11,10.0,WNW,5.8,-,N/A,,Overcast,300,2013-02-02 09:35:00
3:55 AM,28.6,22.8,79,30.11,10.0,NW,5.8,-,N/A,,Overcast,310,2013-02-02 09:55:00
4:15 AM,28.4,22.5,78,30.11,10.0,NW,4.6,-,N/A,,Overcast,320,2013-02-02 10:15:00
4:35 AM,28.6,22.6,78,30.12,10.0,NW,5.8,-,N/A,,Overcast,310,2013-02-02 10:35:00
4:55 AM,28.6,22.1,77,30.11,10.0,NW,4.6,-,N/A,,Overcast,320,2013-02-02 10:55:00
5:15 AM,28.4,21.7,76,30.12,10.0,NNW,5.8,-,N/A,,Overcast,340,2013-02-02 11:15:00
5:35 AM,28.2,21.6,76,30.13,10.0,NW,6.9,-,N/A,,Overcast,320,2013-02-02 11:35:00
5:55 AM,28.0,21.0,75,30.14,10.0,NNW,8.1,-,N/A,,Overcast,340,2013-02-02 11:55:00
6:15 AM,27.5,21.0,77,30.14,10.0,NNW,8.1,-,N/A,,Overcast,330,2013-02-02 12:15:00
6:35 AM,27.5,21.2,77,30.15,10.0,NNW,5.8,-,N/A,,Overcast,340,2013-02-02 12:35:00
6:55 AM,27.1,21.6,80,30.15,10.0,NNW,4.6,-,N/A,,Overcast,330,2013-02-02 12:55:00
7:15 AM,26.6,21.0,79,30.16,10.0,NNW,5.8,-,N/A,,Overcast,340,2013-02-02 13:15:00
7:35 AM,26.6,19.8,75,30.17,10.0,NNW,9.2,-,N/A,,Overcast,340,2013-02-02 13:35:00
7:55 AM,26.4,19.4,75,30.17,10.0,NNW,8.1,-,N/A,,Overcast,340,2013-02-02 13:55:00
8:35 AM,26.2,19.2,75,30.18,10.0,NNE,4.6,-,N/A,,Overcast,20,2013-02-02 14:35:00
8:55 AM,25.7,19.2,76,30.19,10.0,North,3.5,-,N/A,,Overcast,10,2013-02-02 14:55:00
9:15 AM,25.7,19.0,76,30.20,10.0,NNW,4.6,-,N/A,,Overcast,330,2013-02-02 15:15:00
9:35 AM,25.7,19.2,76,30.20,10.0,Calm,Calm,-,N/A,,Overcast,0,2013-02-02 15:35:00
9:55 AM,26.1,19.0,75,30.19,10.0,Calm,Calm,-,N/A,,Overcast,0,2013-02-02 15:55:00
10:15 AM,26.4,19.2,74,30.20,10.0,Calm,Calm,-,N/A,,Overcast,0,2013-02-02 16:15:00
10:35 AM,26.6,19.0,73,30.20,10.0,North,3.5,-,N/A,,Overcast,10,2013-02-02 16:35:00
10:55 AM,26.6,18.7,72,30.19,10.0,Calm,Calm,-,N/A,,Overcast,0,2013-02-02 16:55:00
11:15 AM,27.1,18.9,71,30.19,10.0,Calm,Calm,-,N/A,,Overcast,0,2013-02-02 17:15:00
11:35 AM,27.3,19.2,72,30.20,10.0,Calm,Calm,-,N/A,,Overcast,0,2013-02-02 17:35:00
11:55 AM,27.3,19.2,72,30.19,10.0,Calm,Calm,-,N/A,,Overcast,0,2013-02-02 17:55:00
12:15 PM,28.0,19.6,71,30.18,10.0,Calm,Calm,-,N/A,,Overcast,0,2013-02-02 18:15:00
12:35 PM,28.2,19.8,71,30.17,10.0,SE,4.6,-,N/A,,Overcast,140,2013-02-02 18:35:00
12:55 PM,28.4,20.1,71,30.15,10.0,Calm,Calm,-,N/A,,Overcast,0,2013-02-02 18:55:00
1:15 PM,28.6,21.2,74,30.15,10.0,South,6.9,-,N/A,,Overcast,170,2013-02-02 19:15:00
1:35 PM,29.1,21.2,72,30.14,10.0,South,8.1,-,N/A,,Overcast,170,2013-02-02 19:35:00
1:55 PM,29.7,22.8,76,30.15,10.0,SW,6.9,-,N/A,,Overcast,220,2013-02-02 19:55:00
2:15 PM,29.7,22.8,76,30.14,10.0,SW,4.6,-,N/A,,Overcast,220,2013-02-02 20:15:00
2:35 PM,30.7,23.4,74,30.13,10.0,South,3.5,-,N/A,,Overcast,190,2013-02-02 20:35:00
2:55 PM,31.5,24.3,75,30.11,10.0,South,6.9,-,N/A,,Overcast,170,2013-02-02 20:55:00
3:15 PM,32.2,25.3,76,30.10,10.0,South,4.6,-,N/A,,Overcast,180,2013-02-02 21:15:00
3:35 PM,32.9,26.1,76,30.09,10.0,SSE,5.8,-,N/A,,Overcast,150,2013-02-02 21:35:00
3:55 PM,33.1,27.0,78,30.07,10.0,South,6.9,-,N/A,,Scattered Clouds,170,2013-02-02 21:55:00
4:15 PM,32.9,26.6,78,30.06,10.0,SSE,8.1,-,N/A,,Clear,150,2013-02-02 22:15:00
4:35 PM,32.9,26.6,78,30.06,10.0,SSE,6.9,-,N/A,,Scattered Clouds,150,2013-02-02 22:35:00
4:55 PM,33.3,27.0,78,30.05,10.0,South,4.6,-,N/A,,Clear,170,2013-02-02 22:55:00
5:15 PM,33.1,27.3,79,30.05,10.0,SSE,3.5,-,N/A,,Scattered Clouds,150,2013-02-02 23:15:00
5:35 PM,32.9,27.9,82,30.06,10.0,Calm,Calm,-,N/A,,Mostly Cloudy,0,2013-02-02 23:35:00
5:55 PM,32.9,28.0,82,30.05,10.0,SE,3.5,-,N/A,,Overcast,140,2013-02-02 23:55:00
6:15 PM,32.7,28.4,84,30.05,10.0,Calm,Calm,-,N/A,,Overcast,0,2013-02-03 00:15:00
6:35 PM,32.9,28.2,83,30.07,10.0,Calm,Calm,-,N/A,Rain,Light Rain,0,2013-02-03 00:35:00
6:55 PM,33.1,28.9,85,30.08,10.0,Calm,Calm,-,N/A,Rain,Light Rain,0,2013-02-03 00:55:00
7:35 PM,32.0,29.3,90,30.08,10.0,Calm,Calm,-,N/A,,Scattered Clouds,0,2013-02-03 01:35:00
7:55 PM,30.7,28.2,90,30.08,10.0,Calm,Calm,-,N/A,,Clear,0,2013-02-03 01:55:00
8:15 PM,29.8,27.3,90,30.08,10.0,Calm,Calm,-,N/A,,Clear,0,2013-02-03 02:15:00
8:35 PM,29.1,27.5,94,30.08,7.0,Calm,Calm,-,N/A,,Clear,0,2013-02-03 02:35:00
8:55 PM,30.4,28.4,92,30.07,10.0,Calm,Calm,-,N/A,,Clear,0,2013-02-03 02:55:00
9:15 PM,31.6,30.0,94,30.07,10.0,NW,4.6,-,N/A,,Clear,310,2013-02-03 03:15:00
9:35 PM,38.1,29.8,72,30.07,10.0,WNW,12.7,18.4,N/A,,Clear,300,2013-02-03 03:35:00
9:55 PM,38.3,29.3,70,30.08,10.0,NW,12.7,-,N/A,,Clear,310,2013-02-03 03:55:00
10:15 PM,38.7,29.1,69,30.08,10.0,NW,11.5,19.6,N/A,,Clear,310,2013-02-03 04:15:00
10:35 PM,37.9,28.8,70,30.09,10.0,NW,10.4,16.1,N/A,,Clear,310,2013-02-03 04:35:00
10:55 PM,37.4,28.4,70,30.09,10.0,WNW,10.4,-,N/A,,Clear,300,2013-02-03 04:55:00
11:15 PM,37.6,28.4,69,30.10,10.0,NW,13.8,23.0,N/A,,Scattered Clouds,310,2013-02-03 05:15:00
11:35 PM,38.1,28.2,68,30.12,10.0,NW,15.0,27.6,N/A,,Mostly Cloudy,310,2013-02-03 05:35:00
11:55 PM,37.6,27.9,68,30.13,10.0,NW,10.4,19.6,N/A,,Overcast,320,2013-02-03 05:55:00